CZ-6A DEB, 61414

Orbit data source: Space-Track

CZ-6A DEB, 61414 is space debris in LEO originally from a launch on Tue, 06 Aug 2024 UTC launched from the Taiyaun Space Center, China (TSC). Debris objects in space refer to the collection of defunct objects orbiting the Earth. Examples of debris include non-operational satellites, rocket bodies, and fragments generated from explosions, collisions, or faulty payload assembly.

Loading next visibility...
Identifier
61414, 2024-140YF
Orbit
LEO
Country
Flag of CNCN / PRC
Related business
Manufacturer
SAST
Mission
Spacecraft
Bus & Motor
Unknown
Mass
Unknown
Launch date (UTC)
2024-08-06 (2 years ago)
Launch vehicle
Unknown
Launch site
Taiyaun Space Center, China (TSC)
Object type
Payload
Rocket body
Debris
Shape & HBR
Unknown shape, 0.1 m
Radar Cross Section
Small (<0.1 m²)

Expand to show TLE details & history
Last TLE update: 15 hours ago

TLE from 15 hours ago
0 CZ-6A DEB
1 61414U 24140YF  26171.23675664  .00001478  00000-0  33025-3 0  9999
2 61414  88.9854 268.8405 0085805 251.0526 108.1369 14.54027862 94190
Epoch: 2026-06-20T05:40Z
TLE epoch observation values (Epoch: 2026-06-20T05:40:55.773Z)
Latitude
-0.00004°
Longitude
-84.84616°
Altitude
735.038 km
Speed
7.477 km/s
True Right ascension
17h 55m 21s
True Declination
0° 00' 00"
Sunlit
Object was in full shadow at epoch
Visualization orbit readout
Latitude
Unknown
Longitude
Unknown
Altitude
Unknown
Speed
Unknown
Apparent Right ascension
Unknown
Apparent Declination
Unknown
Sunlit
N/A
Visualization observer readout
Local Sidereal Time
07:23:48
Azimuth
Unknown
Elevation
Unknown
Doppler factor
Unknown
Orbital elements
Apogee altitude
770.241 km
Perigee altitude
648.611 km
Semi-major axis
7,087.563 km
Eccentricity
0.00858
Inclination
88.9854°
RAAN
268.8405°
Arg. of periapsis
251.0526°
True anomaly
109.06815°
Mean anomaly
108.1369°
Eccentric anomaly
108.60284°
Mean motion
3.63746 °/min
Orbital period
98.97 mins
BSTAR
0.00033025
Loading maneuver chart data...
Computing Atmospheric mass density...
Loading historical data...
Loading historical data...
Loading historical data...
Loading historical data...
Loading historical data...
Loading historical data...
Loading historical data...

Documentation

Showing up to 5 results
|